Date,TemperatureHighF,TemperatureAvgF,TemperatureLowF,DewpointHighF,DewpointAvgF,DewpointLowF,HumidityHigh,HumidityAvg,HumidityLow,PressureMaxIn,PressureMinIn,WindSpeedMaxMPH,WindSpeedAvgMPH,GustSpeedMaxMPH,PrecipitationSumIn
2013-1-1,61,54,46,57,51,40,95,89,69,30.18,29.93,14,4,14,1.71
2013-1-2,46,44,42,40,33,30,81,67,57,30.28,30.16,14,4,14,0.01
2013-1-3,58,45,37,33,28,14,80,53,19,30.43,30.26,14,4,14,0.00
2013-1-4,55,46,39,28,24,17,59,45,23,30.52,30.35,9,4,9,0.02
2013-1-5,46,44,42,40,36,25,87,73,43,30.40,30.26,8,3,8,0.50
2013-1-6,64,48,38,41,36,30,89,67,29,30.34,30.22,16,4,16,0.01
2013-1-7,65,44,30,40,28,20,86,62,18,30.35,30.20,8,2,8,0.00
2013-1-8,62,53,45,60,44,32,94,71,50,30.17,30.01,10,3,10,0.38
2013-1-9,66,64,62,65,63,60,99,94,90,30.15,30.02,11,4,11,2.04
2013-1-10,68,64,62,66,63,59,99,95,80,30.12,29.96,15,5,15,1.42
2013-1-11,77,64,50,63,53,43,98,72,33,30.06,29.92,11,3,11,0.01
2013-1-12,78,73,67,72,67,62,99,83,60,29.96,29.78,24,8,24,0.04
2013-1-13,74,56,45,66,50,39,89,80,58,30.15,29.70,26,8,26,0.73
2013-1-14,45,39,36,39,32,29,82,74,66,30.23,30.09,17,7,17,0.05
2013-1-15,36,35,34,31,30,29,85,82,77,30.14,29.99,13,5,13,0.27
2013-1-16,39,36,33,34,31,28,86,81,65,30.22,30.08,11,3,11,0.06
2013-1-17,65,44,31,34,24,10,83,53,13,30.46,30.19,10,2,10,0.01
2013-1-18,71,45,31,36,21,-2,84,50,10,30.56,30.38,8,2,8,0.00
2013-1-19,69,46,30,40,29,20,84,56,16,30.38,30.21,11,2,11,0.00
2013-1-20,76,51,33,49,32,14,87,57,10,30.28,30.12,6,1,6,0.00
2013-1-21,75,52,39,49,37,28,85,60,26,30.25,30.14,14,2,14,0.00
2013-1-22,74,52,38,37,28,21,68,43,14,30.36,30.23,8,3,8,0.00
2013-1-23,78,57,41,50,41,32,86,59,20,30.36,30.22,14,4,14,0.00
2013-1-24,78,63,54,58,54,48,87,73,46,30.30,30.15,12,4,12,0.00
2013-1-25,80,67,57,60,54,48,94,68,33,30.20,30.06,22,6,22,0.01
2013-1-26,78,63,55,58,53,48,82,69,43,30.23,30.12,11,3,11,0.00
2013-1-27,68,54,50,58,50,47,93,85,64,30.20,30.15,11,1,11,0.00
2013-1-28,76,70,65,62,60,58,80,71,57,30.19,30.04,14,6,14,0.00
2013-1-29,79,72,68,68,64,61,83,75,56,30.06,29.64,30,10,30,0.05
2013-1-30,75,56,38,65,35,13,88,50,17,30.17,29.63,27,6,27,0.58
2013-1-31,68,49,32,28,18,3,79,40,10,30.30,30.16,14,4,14,0.00
2013-2-1,67,52,44,31,19,1,59,31,10,30.43,30.29,14,3,14,0.00
2013-2-2,79,56,36,44,33,20,69,45,17,30.32,30.14,14,3,14,0.00
2013-2-3,78,58,42,48,30,6,85,46,10,30.30,30.10,9,1,9,0.00
2013-2-4,63,55,45,48,40,32,67,58,41,30.11,29.90,6,2,6,0.00
2013-2-5,73,59,53,57,51,45,87,75,48,30.04,29.56,6,2,6,0.00
2013-2-6,69,58,48,60,53,44,95,86,61,30.10,29.57,11,2,11,0.34
2013-2-7,76,63,56,62,54,50,96,76,40,29.96,29.50,7,1,7,0.00
2013-2-8,63,58,49,57,49,38,89,73,58,30.19,29.57,16,4,16,0.00
2013-2-9,67,55,43,54,44,-3,79,66,52,30.20,29.59,13,4,13,0.00
2013-2-10,74,66,62,68,61,54,94,85,67,29.99,29.43,27,6,27,1.10
2013-2-11,63,56,52,61,50,42,94,81,56,30.15,29.56,16,4,16,0.60
2013-2-12,58,54,51,56,51,48,95,91,84,30.06,29.74,11,4,11,0.76
2013-2-13,63,51,40,50,36,26,94,61,24,30.08,29.87,15,3,15,0.00
2013-2-14,71,49,33,45,29,11,87,55,10,30.15,30.05,8,1,8,0.00
2013-2-15,70,52,36,43,30,12,87,52,11,30.25,30.09,15,3,15,0.00
2013-2-16,61,47,36,36,12,-3,64,29,10,30.37,30.23,16,4,16,0.00
2013-2-17,70,50,32,38,26,18,76,45,15,30.29,30.11,20,6,20,0.00
2013-2-18,72,59,49,62,47,36,94,66,41,30.16,29.88,28,7,28,0.76
2013-2-19,68,57,44,62,25,4,92,36,10,30.27,29.93,17,4,17,0.00
2013-2-20,63,53,44,28,19,3,46,28,10,30.26,29.97,34,5,34,0.00
2013-2-21,72,60,51,68,46,14,90,62,19,29.98,29.62,36,6,36,0.35
2013-2-22,70,58,52,57,44,35,87,62,29,30.00,29.85,13,4,13,0.08
2013-2-23,74,56,46,44,37,29,74,53,20,30.01,29.88,11,4,11,0.00
2013-2-24,74,57,40,51,34,18,80,46,13,30.00,29.73,10,3,10,0.00
2013-2-25,71,63,53,64,53,20,93,73,26,29.74,29.37,26,5,26,0.26
2013-2-26,68,53,45,35,26,16,67,37,15,29.91,29.55,22,7,22,0.00
2013-2-27,74,54,37,40,28,12,85,45,10,30.09,29.90,17,3,17,0.00
2013-2-28,64,49,39,26,18,1,54,32,10,30.20,30.06,12,3,12,0.00
2013-3-1,63,47,35,29,19,2,66,38,10,30.21,30.10,15,3,15,0.00
2013-3-2,56,42,32,27,15,-2,71,39,10,30.29,30.15,16,3,16,0.00
2013-3-3,68,46,28,30,17,2,74,38,10,30.28,30.07,14,4,14,0.02
2013-3-4,77,60,45,54,41,25,64,52,32,30.07,29.78,33,10,33,0.00
2013-3-5,74,65,51,59,35,8,80,40,10,30.27,29.81,19,6,19,0.00
2013-3-6,51,50,50,10,9,7,19,19,17,30.38,30.22,7,3,9,0.00
2013-3-7,71,51,45,31,20,8,58,33,10,30.35,30.21,7,4,7,0.00
2013-3-8,78,57,37,41,30,16,78,43,10,30.29,30.12,12,3,12,0.00
2013-3-9,71,63,54,56,49,36,70,60,42,30.13,29.87,21,6,21,0.00
2013-3-10,76,62,55,70,54,48,86,77,48,29.95,29.80,25,4,25,0.25
2013-3-11,63,52,42,51,24,9,87,38,12,30.05,29.94,16,4,16,0.00
2013-3-12,77,53,34,38,22,4,82,41,10,30.24,30.04,11,2,11,0.00
2013-3-13,74,56,41,35,18,0,75,32,10,30.44,30.23,20,4,20,0.00
2013-3-14,80,53,37,36,23,9,73,36,10,30.44,30.25,11,3,11,0.00
2013-3-15,83,64,45,52,37,20,77,43,11,30.28,30.05,20,7,20,0.00
2013-3-16,82,68,55,56,49,40,90,57,23,30.08,29.86,21,8,21,0.00
2013-3-17,83,68,57,62,57,52,91,69,38,29.92,29.72,22,6,22,0.00
2013-3-18,90,76,67,64,60,49,89,62,29,29.94,29.70,22,7,22,0.00
2013-3-19,81,66,52,50,29,11,65,32,10,30.05,29.93,18,6,18,0.00
2013-3-20,76,62,50,42,25,2,73,31,10,30.21,30.02,17,5,17,0.13
2013-3-21,71,57,43,34,23,8,67,32,10,30.06,29.77,19,5,19,0.00
2013-3-22,84,68,57,63,52,29,79,58,29,29.82,29.66,16,5,16,0.00
2013-3-23,77,69,60,65,60,55,88,75,57,29.79,29.55,8,3,8,0.30
2013-3-24,63,58,44,55,35,8,83,49,11,30.07,29.61,19,7,19,0.00
2013-3-25,64,49,35,24,11,-6,55,28,10,30.31,30.06,18,5,18,0.00
2013-3-26,64,46,29,25,10,-2,64,27,10,30.45,30.30,15,3,15,0.00
2013-3-27,72,51,31,33,17,3,74,35,10,30.44,30.22,11,3,11,0.00
2013-3-28,78,58,41,38,24,6,69,36,10,30.34,30.19,11,3,11,0.00
2013-3-29,83,66,51,54,41,17,84,49,10,30.27,30.13,17,4,17,0.00
2013-3-30,81,67,57,61,53,47,87,65,32,30.17,29.96,18,6,18,0.13
2013-3-31,74,64,58,63,58,51,92,83,59,30.03,29.83,26,5,26,0.64
2013-4-1,86,66,56,63,47,21,99,63,10,30.10,29.93,11,2,11,0.01
2013-4-2,83,67,53,53,48,42,79,53,25,30.07,29.93,14,3,14,0.00
2013-4-3,67,52,47,48,44,41,88,76,49,30.08,29.81,27,7,27,0.87
2013-4-4,52,48,46,43,41,39,88,78,62,30.10,29.97,12,4,12,0.01
2013-4-5,82,59,41,45,34,14,86,48,10,30.20,30.06,13,3,13,0.00
2013-4-6,79,62,46,50,44,37,86,56,25,30.12,29.97,18,5,18,0.00
2013-4-7,82,68,56,56,52,45,81,59,27,30.04,29.88,17,6,17,0.00
2013-4-8,84,72,63,63,58,52,87,63,37,29.93,29.84,21,7,21,0.00
2013-4-9,83,75,68,68,64,58,89,71,58,29.90,29.78,23,8,23,0.00
2013-4-10,85,78,73,68,66,64,76,66,51,29.87,29.71,25,9,25,0.00
2013-4-11,76,54,47,68,44,34,90,72,29,29.87,29.71,19,4,19,1.06
2013-4-12,84,61,42,54,35,16,89,51,10,30.01,29.84,11,2,11,0.00
2013-4-13,87,67,48,55,38,21,88,46,10,30.02,29.82,11,2,11,0.00
2013-4-14,83,69,58,62,55,41,87,64,37,29.86,29.68,16,4,16,0.08
2013-4-15,90,76,65,70,63,58,90,66,36,29.89,29.75,16,5,16,0.00
2013-4-16,86,78,75,72,70,67,90,75,58,30.02,29.88,14,6,14,0.00
2013-4-17,90,80,74,70,67,61,85,67,40,30.02,29.83,25,7,25,0.00
2013-4-18,86,73,51,68,62,44,86,69,52,29.97,29.68,27,9,27,0.70
2013-4-19,68,54,45,44,26,8,77,39,10,30.20,29.96,18,6,18,0.00
2013-4-20,78,58,38,50,27,10,84,42,10,30.26,30.09,13,2,13,0.00
2013-4-21,82,63,44,52,32,15,86,43,10,30.22,30.08,11,2,11,0.00
2013-4-22,86,67,46,56,39,25,86,45,11,30.13,29.95,11,2,11,0.00
2013-4-23,88,73,59,64,58,47,86,61,34,30.01,29.88,17,5,17,0.00
2013-4-24,72,61,51,68,51,41,89,71,40,30.25,29.92,15,5,15,0.41
2013-4-25,79,61,50,42,33,15,73,42,10,30.34,30.22,16,5,16,0.00
2013-4-26,82,64,52,64,48,38,76,59,38,30.26,30.12,13,2,13,0.00
2013-4-27,87,76,68,69,62,51,92,65,33,30.13,29.96,18,6,18,0.00
2013-4-28,89,73,65,66,63,55,92,72,33,30.03,29.89,15,3,15,0.02
2013-4-29,92,74,62,71,56,36,98,63,15,29.97,29.83,10,2,10,0.01
2013-4-30,84,71,61,68,61,56,92,70,46,29.88,29.78,11,2,11,0.00
2013-5-1,92,73,66,67,61,54,95,69,28,29.89,29.80,17,2,17,0.86
2013-5-2,77,68,58,66,63,55,97,83,57,30.02,29.87,16,4,16,0.06
2013-5-3,68,53,46,55,40,25,90,65,23,30.08,29.99,16,6,16,0.02
2013-5-4,81,60,38,42,27,13,87,41,10,30.04,29.79,17,4,17,0.00
2013-5-5,73,59,42,40,30,19,69,37,14,30.04,29.92,16,4,16,0.00
2013-5-6,85,64,44,49,40,32,81,48,16,30.05,29.91,14,3,14,0.00
2013-5-7,91,73,56,57,44,24,84,45,10,30.04,29.95,12,2,12,0.06
2013-5-8,89,73,56,66,53,48,91,54,26,30.08,29.99,12,3,12,0.00
2013-5-9,86,72,62,66,62,54,90,72,43,30.06,29.93,11,4,11,0.07
2013-5-10,84,72,65,73,64,59,99,79,43,30.01,29.78,20,4,20,1.33
2013-5-11,90,75,64,70,60,52,98,66,30,30.06,29.91,12,3,12,0.13
2013-5-12,82,69,57,64,48,35,94,54,20,30.18,30.06,15,3,15,0.00
2013-5-13,89,69,50,60,39,19,91,45,10,30.30,30.16,10,2,10,0.00
2013-5-14,91,74,56,59,43,25,86,42,10,30.25,30.10,14,5,14,0.00
2013-5-15,86,72,60,63,56,49,87,59,31,30.16,29.96,14,4,14,0.00
2013-5-16,89,75,67,66,62,58,88,65,38,29.99,29.83,21,6,21,0.00
2013-5-17,92,79,69,70,66,59,89,66,42,29.97,29.87,17,6,17,0.00
2013-5-18,94,82,74,69,66,59,82,61,36,30.01,29.91,17,6,17,0.00
2013-5-19,93,82,74,70,66,58,83,62,33,29.95,29.85,20,7,20,0.00
2013-5-20,94,84,78,71,68,64,79,62,40,29.95,29.81,21,8,21,0.00
2013-5-21,93,83,72,72,68,60,84,64,36,29.91,29.73,21,7,21,0.00
2013-5-22,89,79,67,71,67,61,98,68,48,29.94,29.83,13,4,13,0.40
2013-5-23,99,80,70,75,68,56,97,70,33,30.04,29.92,14,3,14,0.01
2013-5-24,97,80,67,70,63,56,94,61,30,30.16,30.02,17,3,17,0.00
2013-5-25,93,81,72,66,60,52,74,52,30,30.20,30.08,11,3,11,0.00
2013-5-26,93,80,74,69,63,52,83,59,29,30.15,30.04,8,2,8,0.00
2013-5-27,93,81,71,71,63,49,89,59,23,30.09,29.94,17,5,17,0.00
2013-5-28,93,81,71,71,63,53,91,59,28,30.01,29.90,17,6,17,0.00
2013-5-29,94,80,69,71,65,59,87,63,32,29.96,29.84,20,5,20,0.00
2013-5-30,93,82,74,73,70,65,91,68,45,29.94,29.83,36,5,36,0.09
2013-5-31,93,82,75,74,71,66,87,71,44,29.95,29.87,18,5,23,0.00
2013-6-4,100,85,69,68,63,55,80,51,23,29.92,29.80,7,2,7,0.00
2013-6-5,102,88,75,76,68,60,88,56,26,29.91,29.73,5,2,5,0.00
2013-6-6,86,77,70,76,69,61,99,79,45,29.88,29.74,17,3,17,0.13
2013-6-7,94,79,69,72,65,56,99,68,29,29.88,29.80,8,2,8,0.01
2013-6-8,94,79,69,68,63,56,86,62,30,29.93,29.85,14,3,14,0.01
2013-6-9,96,77,69,72,67,63,93,74,34,29.94,29.84,20,3,20,0.41
2013-6-10,98,85,69,76,68,61,99,62,32,29.99,29.92,11,3,11,0.01
2013-6-11,99,86,74,81,71,62,99,65,33,30.06,29.96,10,3,10,0.00
2013-6-12,101,87,75,77,69,60,99,61,27,30.08,29.96,12,3,12,0.00
2013-6-13,102,87,75,80,70,61,99,61,28,30.05,29.88,13,2,13,0.00
2013-6-14,102,88,77,74,69,60,84,57,34,29.95,29.85,14,3,14,0.00
2013-6-15,100,85,70,66,60,49,77,47,19,29.99,29.89,9,2,9,0.00
2013-6-16,100,87,77,72,67,60,81,55,28,30.03,29.91,14,3,14,0.00
2013-6-17,99,86,75,78,68,59,89,57,28,29.99,29.85,15,4,15,0.00
2013-6-18,83,80,78,73,71,69,82,74,64,29.99,29.88,12,4,12,0.33
2013-6-19,73,73,72,73,73,72,99,99,99,29.95,29.92,3,1,3,0.00
2013-6-20,90,79,76,70,66,59,77,64,46,30.05,29.99,30,3,30,0.12
2013-6-21,101,84,74,81,70,61,99,67,28,30.11,30.01,9,2,9,0.01
2013-6-22,100,85,72,78,68,58,99,61,27,30.09,29.96,10,2,10,0.00
2013-6-23,99,86,74,75,67,56,91,58,24,30.05,29.95,11,3,11,0.00
2013-6-24,97,83,76,76,71,62,99,72,32,30.09,29.99,25,3,25,0.59
2013-6-25,99,84,73,82,71,62,99,70,32,30.06,29.94,12,3,12,0.01
2013-6-26,100,87,76,79,70,58,99,63,26,30.02,29.91,12,4,12,0.00
2013-6-27,102,87,74,80,68,55,99,58,24,30.02,29.89,10,3,10,0.00
2013-6-28,100,87,76,73,68,60,83,57,28,29.94,29.74,11,3,11,0.00
2013-6-29,102,89,78,75,66,44,87,51,15,29.79,29.67,14,3,14,0.00
2013-6-30,96,83,68,68,55,35,84,45,13,29.82,29.72,14,3,14,0.00
2013-7-1,94,81,66,66,56,44,85,47,19,29.92,29.81,14,3,14,0.00
2013-7-2,96,81,67,70,56,39,91,49,16,29.99,29.91,11,2,11,0.00
2013-7-3,97,81,66,72,55,38,92,49,14,30.04,29.91,11,2,11,0.00
2013-7-4,97,82,67,69,56,39,84,46,14,29.98,29.89,14,2,14,0.00
2013-7-5,101,82,68,71,59,33,85,54,10,29.99,29.89,16,2,16,0.00
2013-7-6,99,82,71,73,66,57,96,63,27,29.99,29.88,10,3,10,0.00
2013-7-7,97,82,76,74,70,62,93,69,35,30.05,29.93,21,4,21,0.01
2013-7-8,99,83,74,79,70,60,99,68,29,30.14,30.02,20,3,20,0.01
2013-7-9,101,85,75,79,71,60,99,68,28,30.17,30.04,8,3,8,0.00
2013-7-10,101,93,82,77,66,57,84,44,25,30.08,29.92,9,4,9,0.00
2013-7-11,98,84,76,75,69,63,84,62,35,29.99,29.89,17,3,17,0.00
2013-7-12,104,87,74,77,65,49,95,54,21,29.95,29.83,12,3,12,0.00
2013-7-13,98,84,65,65,54,31,81,40,13,29.96,29.86,15,2,15,0.00
2013-7-14,95,81,70,67,61,56,75,53,27,29.96,29.87,10,2,10,0.06
2013-7-15,96,79,71,73,67,58,92,70,30,30.10,29.94,21,3,21,0.09
2013-7-16,96,83,75,73,69,62,91,65,35,30.16,30.05,15,3,15,0.11
2013-7-17,100,85,75,77,69,57,99,65,24,30.22,30.09,10,3,10,0.00
2013-7-18,99,82,73,77,67,58,96,65,27,30.15,29.99,13,2,13,0.00
2013-7-19,102,83,71,76,65,55,99,61,22,30.06,29.91,10,2,10,0.00
2013-7-20,97,83,70,75,65,57,99,60,28,29.98,29.86,18,3,18,0.00
2013-7-21,93,81,73,77,70,64,98,70,39,29.98,29.92,19,4,19,0.06
2013-7-22,97,85,75,78,71,64,99,66,35,30.02,29.53,21,5,21,0.05
2013-7-23,99,87,78,78,69,57,96,60,26,29.65,29.49,17,5,17,0.00
2013-7-24,96,85,78,73,69,63,83,61,34,29.59,29.47,19,5,19,0.39
2013-7-25,102,87,74,86,66,52,99,57,21,30.02,29.91,8,2,8,0.01
2013-7-26,101,86,76,70,67,62,81,55,28,30.04,29.88,11,3,11,0.00
2013-7-27,93,82,76,79,72,65,99,73,40,29.92,29.84,14,4,14,0.44
2013-7-28,100,84,71,78,66,57,99,61,25,29.99,29.90,9,2,9,0.00
2013-7-29,102,86,76,76,68,56,90,59,23,30.07,29.97,9,2,9,0.00
2013-7-30,104,87,73,76,65,41,96,55,15,30.13,30.00,11,3,11,0.00
2013-7-31,104,88,76,74,66,54,86,53,20,30.08,29.91,11,3,11,0.00
2013-8-1,103,87,77,77,71,64,87,62,29,30.03,29.88,8,2,8,0.06
2013-8-2,108,89,75,75,68,54,84,54,19,29.96,29.88,8,2,8,0.00
2013-8-3,102,88,76,75,69,60,87,57,27,30.04,29.95,6,2,6,0.00
2013-8-4,107,90,76,80,67,50,95,53,18,30.08,29.94,9,2,9,0.00
2013-8-9,105,95,82,75,66,57,68,41,22,29.98,29.86,8,3,8,0.26
2013-8-10,101,85,78,79,72,62,91,68,29,30.04,29.95,8,2,8,0.02
2013-8-11,102,85,75,77,70,56,93,67,23,30.08,29.99,8,2,8,0.46
2013-8-12,98,83,76,81,72,67,99,72,38,30.08,29.95,10,3,10,0.07
2013-8-13,100,84,73,76,72,62,99,70,30,30.01,29.86,15,3,15,1.51
2013-8-14,91,79,74,82,74,67,99,87,54,29.98,29.90,10,1,10,0.89
2013-8-15,95,81,70,67,60,54,66,51,25,30.01,29.90,9,3,9,0.00
2013-8-16,94,81,67,62,57,48,79,48,21,29.99,29.91,11,3,11,0.00
2013-8-17,94,80,67,66,60,51,83,54,25,29.99,29.90,14,4,14,0.00
2013-8-18,97,82,71,69,61,46,86,54,20,30.03,29.94,14,3,14,0.00
2013-8-19,96,80,70,70,63,53,90,60,26,30.06,29.94,9,2,9,0.00
2013-8-20,97,79,69,76,67,59,96,71,30,30.05,29.96,13,2,13,0.38
2013-8-21,99,82,74,76,70,60,98,70,29,30.10,30.00,12,2,12,0.00
2013-8-22,100,86,74,79,67,56,98,57,25,30.08,29.93,8,2,8,0.01
2013-8-23,102,87,75,78,67,50,95,57,22,29.99,29.88,12,2,12,0.00
2013-8-24,97,83,74,76,68,59,90,63,29,30.05,29.96,16,3,16,0.30
2013-8-25,95,83,74,72,68,60,89,63,34,30.14,30.05,14,4,14,0.01
2013-8-26,95,82,76,71,69,63,82,66,36,30.17,30.07,14,3,14,0.01
2013-8-27,100,84,72,80,66,52,98,61,21,30.12,29.99,6,1,6,0.00
2013-8-28,101,84,71,74,62,47,88,53,18,30.06,29.96,10,2,10,0.00
2013-8-29,102,84,70,73,61,42,88,53,13,30.05,29.94,8,2,8,0.00
2013-8-30,102,85,72,78,63,51,93,54,19,30.01,29.88,8,2,8,0.00
2013-8-31,104,86,73,74,64,52,89,52,20,29.96,29.81,9,2,9,0.00
2013-9-1,103,85,73,76,66,51,89,58,18,29.92,29.78,11,2,11,0.00
2013-9-2,108,88,76,78,65,40,91,53,10,29.96,29.81,9,3,9,0.00
2013-9-3,104,87,79,75,69,57,79,58,23,29.95,29.83,17,3,17,0.09
2013-9-4,103,86,74,75,67,53,90,57,21,30.04,29.92,10,2,10,0.00
2013-9-5,104,87,74,74,65,39,89,55,12,30.08,29.96,8,2,8,0.00
2013-9-6,101,86,73,75,66,56,90,56,23,30.09,29.94,11,2,11,0.00
2013-9-7,103,86,72,79,64,49,91,55,18,30.04,29.90,9,2,9,0.00
2013-9-8,103,84,70,75,62,44,91,54,14,30.00,29.88,8,2,8,0.00
2013-9-9,99,84,69,75,62,46,93,54,17,30.02,29.92,16,2,16,0.00
2013-9-10,102,85,71,74,62,48,87,53,17,30.09,29.97,14,2,14,0.00
2013-9-11,100,86,74,73,62,47,86,51,17,30.10,29.97,12,2,12,0.00
2013-9-12,106,86,71,76,59,37,87,49,10,30.04,29.87,9,1,9,0.00
2013-9-13,105,85,72,70,61,42,74,50,14,29.91,29.77,13,2,13,0.00
2013-9-14,99,84,71,67,54,41,68,39,15,29.95,29.86,14,4,14,0.00
2013-9-15,102,82,68,65,54,47,58,41,17,30.02,29.93,8,2,8,0.00
2013-10-4,93,81,76,74,70,64,89,73,40,29.97,29.89,14,4,14,0.13
2013-10-5,92,79,73,78,71,66,99,78,43,29.95,29.84,17,2,17,0.04
2013-10-6,80,70,58,75,51,22,97,59,12,29.99,29.85,13,4,13,0.09
2013-10-7,86,66,52,54,43,28,82,51,12,30.07,29.97,8,2,8,0.00
2013-10-8,86,66,51,56,45,32,90,55,14,30.08,29.97,8,2,8,0.00
2013-10-9,91,68,51,61,46,26,93,54,10,30.08,29.99,5,1,5,0.00
2013-10-10,89,68,55,64,56,49,96,69,26,30.10,29.95,5,1,5,0.00
2013-10-11,93,73,60,70,61,54,99,69,29,30.01,29.89,10,2,10,0.01
2013-10-12,73,73,72,65,64,64,76,76,75,29.94,29.93,3,1,4,0.01
2013-10-13,90,77,69,75,67,61,99,75,38,30.16,30.01,6,2,6,0.01
2013-10-14,89,78,71,67,62,54,81,61,30,30.11,29.96,8,2,8,0.00
2013-10-15,91,78,70,67,63,56,82,62,31,30.01,29.87,9,3,9,0.00
2013-10-16,85,75,66,70,65,60,86,72,45,29.95,29.87,11,3,11,0.00
2013-10-17,84,66,58,61,56,47,88,72,29,30.04,29.93,8,2,8,0.01
2013-10-18,73,63,53,64,53,48,99,72,43,30.04,29.89,8,2,8,0.02
2013-10-19,75,63,50,64,53,44,99,74,39,30.06,29.90,14,2,14,0.08
2013-10-20,85,59,42,56,37,14,95,57,10,30.09,29.95,7,1,7,0.00
2013-10-21,76,62,50,59,51,44,94,69,41,30.03,29.92,8,1,8,0.00
2013-10-22,80,63,53,62,53,40,99,73,26,30.03,29.94,11,2,11,0.00
2013-10-23,88,63,48,54,42,20,94,58,10,30.12,30.01,8,1,8,0.00
2013-10-24,89,66,49,58,46,31,94,56,13,30.22,30.08,11,2,11,0.00
2013-10-25,76,61,51,46,31,13,53,36,10,30.41,30.21,15,4,15,0.00
2013-10-26,84,60,44,49,36,16,81,46,10,30.30,30.10,9,2,9,0.00
2013-10-27,81,66,57,65,56,46,92,72,41,30.12,29.98,6,2,6,0.30
2013-10-28,67,66,66,66,65,64,99,97,92,30.04,30.00,4,0,4,0.00
2013-10-29,86,73,66,69,62,54,99,71,34,30.17,30.08,10,3,10,0.00
2013-10-30,77,71,65,71,66,60,98,86,70,30.13,29.91,9,2,9,0.28
2013-10-31,76,71,64,74,68,64,99,92,75,29.91,29.73,24,7,24,1.29
2013-11-1,88,67,52,68,48,23,99,62,10,29.94,29.81,9,2,9,0.01
2013-11-2,78,62,51,56,39,12,94,54,10,30.19,29.90,15,3,15,0.01
2013-11-3,74,55,42,45,35,18,86,55,13,30.25,30.09,11,2,11,0.00
2013-11-4,79,59,45,52,44,40,86,64,27,30.17,30.08,9,2,9,0.00
2013-11-5,80,69,58,60,55,50,81,63,43,30.12,30.02,15,4,15,0.00
2013-11-6,81,70,57,66,62,51,88,76,59,30.18,29.99,18,4,18,0.02
2013-11-7,68,55,46,52,35,16,88,52,15,30.37,30.17,18,6,18,0.00
2013-11-8,67,50,41,39,32,17,79,59,16,30.36,30.27,11,2,11,0.00
2013-11-10,81,64,50,43,38,23,71,44,12,30.29,30.18,8,2,8,0.00
2013-11-11,83,60,44,55,41,28,88,58,14,30.25,30.12,4,1,4,0.00
2013-11-12,67,52,39,54,38,18,93,63,36,30.57,30.19,19,5,19,0.00
2013-11-13,62,43,32,20,13,-2,59,36,10,30.60,30.42,13,4,13,0.00
2013-11-14,68,49,27,38,24,4,74,44,10,30.41,30.11,8,1,8,0.00
2013-11-15,84,61,48,55,44,34,79,59,18,30.11,29.92,8,1,8,0.00
2013-11-16,83,70,61,72,64,55,99,86,50,29.98,29.83,22,4,22,0.08